Weather History for Lugano, Switzerland

Change the Weather History Date:

Sunday, March 24, 2013

  Actual Average Record
Temperature  
Mean Temperature 44 °F -  
Max Temperature 46 °F 57 °F 73 °F (1998)
Min Temperature 41 °F 44 °F 32 °F (1998)
Degree Days  
Heating Degree Days 22    
Moisture  
Dew Point 42 °F    
Average Humidity 94    
Maximum Humidity 100    
Minimum Humidity 87    
Precipitation  
Precipitation 0.08 in 0.19 in - ()
Sea Level Pressure  
Sea Level Pressure 29.76 in    
Wind  
Wind Speed 2 mph ()    
Max Wind Speed 6 mph    
Max Gust Speed -    
Visibility 2.2 miles    
Events Rain    
Averages and records for this station are not official NWS values.
T = Trace of Precipitation, MM = Missing Value Source: Averaged Metar Reports

Daily Weather History Graph

Daily Weather History Graph

Search for Another Location

Airport:

Trip Planner

Search our weather history database for the weather conditions in past years. The results will help you decide how hot, cold, wet, or windy it might be!

Date:

Astronomy

Mar. 24, 2013 Rise Set
Actual Time 6:19 AM CET 6:42 PM CET
Civil Twilight 5:49 AM CET 7:12 PM CET
Nautical Twilight 5:14 AM CET 7:47 PM CET
Astronomical Twilight 4:38 AM CET 8:24 PM CET
Moon 3:46 PM CET (3/24) 4:29 AM CET (3/24)
Length of Visible Light 13h 22m
Length of Day
12h 22m
Waxing Gibbous, 90% of the Moon is Illuminated
Mar 24
Waxing Gibbous
Mar 27
Full
Apr 3
Last Quarter
Apr 10
New
Apr 18
First Quarter

Hourly Weather History & Observations

Time (CET) Temp. Windchill Dew Point Humidity Pressure Visibility Wind Dir Wind Speed Gust Speed Precip Events Conditions
12:00 AM 44 °F - 42 °F 90% 29.87 in - SW 1.2 mph - -  
12:20 AM 44.6 °F - 42.8 °F 93% 29.83 in 1.6 mi South 2.3 mph - N/A   Light Drizzle
12:50 AM 44.6 °F - 42.8 °F 93% 29.83 in 1.1 mi Variable 2.3 mph - N/A   Heavy Drizzle
1:20 AM 44.6 °F - 42.8 °F 93% 29.83 in 0.8 mi Variable 2.3 mph - N/A Rain Light Rain
1:50 AM 44.6 °F - 42.8 °F 93% 29.83 in 0.6 mi Variable 1.2 mph - N/A Rain Light Rain
2:00 AM 44 °F - 43 °F 94% 29.85 in - Calm Calm - -  
2:20 AM 44.6 °F - 42.8 °F 93% 29.83 in 0.6 mi SSE 1.2 mph - N/A Rain Light Rain
2:50 AM 44.6 °F - 42.8 °F 93% 29.80 in 1.0 mi Variable 1.2 mph - N/A Rain Light Rain
3:00 AM 44 °F - 43 °F 94% 29.84 in - Calm Calm - -  
3:20 AM 44.6 °F - 42.8 °F 93% 29.80 in 0.6 mi Variable 1.2 mph - N/A Rain Light Rain
3:50 AM 44.6 °F - 42.8 °F 93% 29.80 in - Variable 1.2 mph - N/A Rain Light Rain
4:20 AM 44.6 °F 43.1 °F 42.8 °F 93% 29.80 in 0.5 mi South 3.5 mph - N/A Rain Light Rain
4:50 AM 44.6 °F - 42.8 °F 93% 29.80 in 0.7 mi Variable 2.3 mph - N/A   Drizzle
5:00 AM 44 °F - 43 °F 97% 29.82 in - Calm Calm - -  
5:20 AM 44.6 °F - 42.8 °F 93% 29.80 in 0.8 mi Variable 2.3 mph - N/A Rain Light Rain
5:50 AM 42.8 °F - 42.8 °F 100% 29.77 in 0.7 mi South 1.2 mph - N/A Rain Light Rain
6:00 AM 44 °F - 43 °F 97% 29.81 in - SSE 1.2 mph - -  
6:20 AM 42.8 °F - 42.8 °F 100% 29.77 in 1.0 mi Variable 2.3 mph - N/A Rain Light Rain
6:50 AM 42.8 °F - 42.8 °F 100% 29.77 in 0.7 mi Variable 1.2 mph - N/A Rain Light Rain
7:20 AM 42.8 °F - 42.8 °F 100% 29.80 in 0.7 mi SSW 2.3 mph - N/A Rain Light Rain
7:50 AM 44.6 °F - 42.8 °F 93% 29.80 in 0.8 mi Variable 1.2 mph - N/A Rain Light Rain
8:00 AM 44 °F - 43 °F 96% 29.81 in - Calm Calm - -  
8:20 AM 44.6 °F - 42.8 °F 93% 29.77 in 0.8 mi Calm Calm - N/A Rain Light Rain
8:50 AM 44.6 °F - 42.8 °F 93% 29.77 in 0.8 mi Variable 1.2 mph - N/A Rain Light Rain
9:00 AM 44 °F - 44 °F 97% 29.81 in - Calm Calm - -  
9:20 AM 44.6 °F - 42.8 °F 93% 29.77 in 0.8 mi South 2.3 mph - N/A Rain Light Rain
9:50 AM 44.6 °F - 42.8 °F 93% 29.77 in 0.8 mi Variable 2.3 mph - N/A Rain Light Rain
10:20 AM 44.6 °F - 42.8 °F 93% 29.77 in 0.8 mi Variable 2.3 mph - N/A Rain Light Rain
10:50 AM 44.6 °F - 44.6 °F 100% 29.77 in 1.6 mi Variable 1.2 mph - N/A Rain Light Rain
11:00 AM 44 °F - 44 °F 97% 29.80 in - SE 1.2 mph - -  
11:20 AM 46.4 °F - 44.6 °F 93% 29.77 in 1.6 mi Variable 2.3 mph - N/A Rain Light Rain
11:50 AM 46.4 °F - 44.6 °F 93% 29.77 in 1.6 mi Variable 2.3 mph - N/A Rain Light Rain
12:00 PM 45 °F - 44 °F 94% 29.78 in - SE 1.2 mph - -  
12:20 PM 46.4 °F 45.2 °F 44.6 °F 93% 29.74 in 1.9 mi South 3.5 mph - N/A Rain Light Rain
12:50 PM 46.4 °F 45.2 °F 42.8 °F 87% 29.74 in 1.9 mi Variable 3.5 mph - N/A Rain Light Rain
1:20 PM 46.4 °F - 42.8 °F 87% 29.74 in 1.9 mi Variable 2.3 mph - N/A Rain Light Rain
1:50 PM 44.6 °F - 42.8 °F 93% 29.74 in 2.2 mi Variable 2.3 mph - N/A Rain Light Rain
2:00 PM 44 °F - 43 °F 96% 29.76 in - South 2.3 mph - -  
2:20 PM 44.6 °F - 42.8 °F 93% 29.74 in 2.2 mi Variable 2.3 mph - N/A Rain Light Rain
2:50 PM 44.6 °F - 42.8 °F 93% 29.71 in 2.2 mi Variable 2.3 mph - N/A Rain Light Rain
3:00 PM 44 °F - 44 °F 97% 29.75 in - South 2.3 mph - -  
3:20 PM 44.6 °F - 44.6 °F 100% 29.71 in 2.5 mi Variable 1.2 mph - N/A Rain Light Rain
3:50 PM 44.6 °F 41.4 °F 42.8 °F 93% 29.71 in 3.1 mi South 5.8 mph - N/A Rain Light Rain
4:20 PM 44.6 °F 43.1 °F 42.8 °F 93% 29.71 in 3.7 mi South 3.5 mph - N/A Rain Light Rain
4:50 PM 44.6 °F 42.2 °F 41.0 °F 87% 29.71 in 3.7 mi SSE 4.6 mph - N/A Rain Light Rain
5:00 PM 43 °F - 42 °F 94% 29.74 in - South 2.3 mph - -  
5:20 PM 42.8 °F 40.1 °F 41.0 °F 93% 29.71 in 3.7 mi South 4.6 mph - N/A Rain Light Rain
5:50 PM 42.8 °F - 41.0 °F 93% 29.71 in 3.7 mi Variable 1.2 mph - N/A Rain Light Rain
6:00 PM 43 °F - 41 °F 91% 29.74 in - South 2.3 mph - -  
6:20 PM 42.8 °F - 41.0 °F 93% 29.71 in 3.7 mi Variable 1.2 mph - N/A Rain Light Rain
6:50 PM 42.8 °F - 41.0 °F 93% 29.71 in 3.7 mi Variable 2.3 mph - N/A Rain Light Rain
7:20 PM 42.8 °F 41.1 °F 41.0 °F 93% 29.71 in 3.7 mi SSW 3.5 mph - N/A Rain Light Rain
7:50 PM 42.8 °F - 41.0 °F 93% 29.71 in 3.7 mi Variable 1.2 mph - N/A Rain Light Rain
8:00 PM 43 °F - 42 °F 92% 29.75 in - SSW 1.2 mph - -  
8:20 PM 42.8 °F - 41.0 °F 93% 29.71 in 3.7 mi SSW 2.3 mph - N/A Rain Light Rain
8:50 PM 42.8 °F - 41.0 °F 93% 29.71 in 3.7 mi Variable 2.3 mph - N/A Rain Light Rain
9:00 PM 42 °F - 40 °F 89% 29.75 in - North 3.5 mph - -  
9:20 PM 42.8 °F 41.1 °F 39.2 °F 87% 29.71 in 3.7 mi North 3.5 mph - N/A Rain Light Rain
9:50 PM 42.8 °F - 39.2 °F 87% 29.71 in 3.7 mi Variable 1.2 mph - N/A Rain Rain
10:20 PM 42.8 °F - 41.0 °F 93% 29.71 in 5.6 mi SSE 1.2 mph - N/A Rain Light Rain
10:50 PM 41.0 °F - 41.0 °F 100% 29.71 in 5.0 mi NNE 2.3 mph - N/A Rain Light Rain
11:00 PM 42 °F - 41 °F 94% 29.75 in - NNE 1.2 mph - -  
11:20 PM 41.0 °F - 41.0 °F 100% 29.71 in 5.0 mi North 2.3 mph - N/A Rain Light Rain
11:50 PM 41.0 °F - 41.0 °F 100% 29.71 in 5.0 mi North 2.3 mph - N/A Rain Light Rain